Tracking 20942 objects as of 10-Jul-2020
HD Live streaming from Space Station
objects crossing your sky now

EUTELSAT 1-F4 (ECS 4)

Track EUTELSAT 1-F4 (ECS 4) now!
EUTELSAT 1-F4 (ECS 4) is classified as:


NORAD ID: 18351
Int'l Code: 1987-078B
Perigee: 36,187.3 km
Apogee: 36,300.9 km
Inclination: 15.3 °
Period: 1,459.2 minutes
Semi major axis: 42615 km
RCS: 3.9811 m2 (large)
Launch date: September 16, 1987
Source: European Telecommunications Satellite Organization (EUTE)
Launch site: FRENCH GUIANA (FRGUI)
aabbcc
Your satellite tracking list
Your tracking list is empty




NASA's NSSDC Master Catalog

Two Line Element Set (TLE):
1 18351U 87078B   20191.46440196 +.00000002 +00000-0 +00000-0 0  9997
2 18351 015.2585 358.8449 0013333 004.6505 168.9071 00.98686474105358
Source of the keplerian elements: AFSPC